Other Public Products
Issued by NWS Grand Forks, ND

Home | Current Version | Previous Version | Graphics & Text | Print | Product List | Glossary On
Versions: 1 2 3 4 5 6 7 8 9 10 11 12 13 14 15 16 17 18 19 20 21 22 23 24 25 26 27 28 29 30 31 32 33 34 35 36 37 38 39 40 41 42 43 44 45 46 47 48 49 50
595
FPUS83 KFGF 260710
OPUFGF
PRAIRIE TO PINES WEATHER ROUNDUP
NATIONAL WEATHER SERVICE EASTERN NORTH DAKOTA/GRAND FORKS ND
200 AM CDT SUN MAR 26 2017

 **SATELLITE DATA USED TO AUGMENT SKY COVER AT AUTOMATED STATIONS**
 *****  WEATHER ACROSS EASTERN NORTH DAKOTA  *****

CITY           SKY/WX    TMP DP  RH WIND       PRES   REMARKS
GRAND FORKS    FAIR      33  32  96 S7        29.99F
GRAND FORKS AF FAIR      34  33  97 S9        29.98F
GRAND CITY NWS NOT AVBL
BUXTON         NOT AVBL
DEVILS LAKE    CLOUDY    34  32  92 S9        29.94F
FARGO          CLOUDY    35  33  92 S6        29.99F
WAHPETON ARPT    N/A     34  32  93 CALM      30.00F
$$

 *****  WEATHER ACROSS CENTRAL AND WESTERN NORTH DAKOTA  *****

CITY           SKY/WX    TMP DP  RH WIND       PRES   REMARKS
JAMESTOWN      FOG       32  32 100 S10       29.95F VSB 1/2 WCI  24
BISMARCK       CLOUDY    41  35  79 SE5       29.93S
MINOT          CLOUDY    43  35  73 S6        29.89R
MINOT AFB      FAIR      38  34  85 NE5       29.89R
GARRISON         N/A     39  32  76 SE3       29.90R
WILLISTON      FAIR      43  33  68 N8        29.90R
DICKINSON      CLOUDY    46  29  51 CALM      29.88S
HETTINGER      CLOUDY    43  35  73 CALM      29.90S
$$

 *****  OTHER OBSERVATIONS NORTHEAST NORTH DAKOTA  *****

CITY           SKY/WX    TMP DP  RH WIND       PRES   REMARKS
WALHALLA       NOT AVBL
LANGDON        FAIR      34  34 100 S14       29.93S WCI  24
CAVALIER         N/A     34  32  93 S8        29.96S
GRAFTON        FAIR      32  32 100 S9        29.99F WCI  24
CANDO          NOT AVBL
FORT TOTTEN      N/A     33  33 100 S9        29.95S
ROLLA          CLOUDY    34  34 100 SW5       29.92R
RUGBY            N/A     36  36 100 S9        29.91R
 ***** THE ABOVE OBSERVATIONS ARE NON NWS ARE NOT QUALITY
        CONTROLLED AND MAY MIS-REPORT RAIN FOR SNOW...
$$

 *****  OTHER OBSERVATIONS SOUTHEAST NORTH DAKOTA *****

CITY           SKY/WX    TMP DP  RH WIND       PRES   REMARKS
COOPERSTOWN    FAIR      32  32 100 S6        29.97F
VALLEY CITY    MIX PCPN  32  32 100 S13       29.99S VSB 3/4 WCI  22
OAKES          NOT AVBL
GWINNER        CLOUDY    34  34 100 MISG      29.98F FOG
SHEYENNE NWR     N/A     35  34  96 SW6       29.95S
BUFFALO        NOT AVBL
WYNDMERE       NOT AVBL
 ***** THE ABOVE OBSERVATIONS ARE NON NWS ARE NOT QUALITY
       CONTROLLED AND MAY MIS-REPORT RAIN FOR SNOW...
$$

  *****  WEATHER ACROSS NORTHERN MINNESOTA  *****

CITY           SKY/WX    TMP DP  RH WIND       PRES   REMARKS
FLAG ISLAND    FAIR      30  28  93 S16       30.01S WCI  19
WARROAD        FAIR      34  28  80 S8        30.02S
ROSEAU         FAIR      34  28  80 S9        30.00F
HALLOCK        FAIR      36  34  93 S12       29.98R
THF RVR FALLS  MOCLDY    30  30 100 CALM      30.02S FOG
HALSTAD          N/A     32  30  92 S5          N/A
FOSSTON        FAIR      30  28  93 SE7       30.01S WCI  23
BAUDETTE       FAIR      30  25  81 S8        30.02F WCI  22
WASKISH        FAIR      30  28  93 SE6       30.03F WCI  24
CROOKSTON      FAIR      32  30  93 S6        30.02S
$$
  *****  WEATHER ACROSS CENTRAL AND WEST MINNESOTA  *****

CITY           SKY/WX    TMP DP  RH WIND       PRES   REMARKS
BEMIDJI        FAIR      30  28  93 SE6       30.02S WCI  24
PARK RAPIDS    CLOUDY    33  27  78 SE6       30.00F
WADENA         CLOUDY    34  28  80 E5        30.00F
DETROIT LAKES  CLOUDY    34  32  93 SE7       30.01F
MOORHEAD       CLOUDY    34  30  86 CALM      30.01S
FERGUS FALLS   CLOUDY    36  30  80 CALM      30.04F
ELBOW LAKE     CLOUDY    37  35  94 CALM      30.00F
MORRIS MN      CLOUDY    37  36  93 SE3       29.98F
STAPLES        CLOUDY    34  28  80 CALM      30.01F
WHEATON        CLOUDY    36  34  93 CALM      30.01F
$$
  *****  WEATHER ELSEWHERE ACROSS MINNESOTA  *****

CITY           SKY/WX    TMP DP  RH WIND       PRES   REMARKS
DULUTH         FRZ DRZL  32  31  96 E10       30.04F FOG     WCI  24
INTRNTL FALLS  CLOUDY    31  26  82 SE5       30.05F
ELY            CLOUDY    30  28  93 CALM      30.07S
CLOQUET        CLOUDY    32  30  93 E7        30.04F FOG
BRAINERD       CLOUDY    34  29  82 VRB3      30.02F
HIBBING        CLOUDY    30  28  92 E3        30.05F
ALEXANDRIA     CLOUDY    38  34  85 E5        30.00S
SAINT CLOUD    CLOUDY    36  31  82 NE7       30.00F
MINNEAPOLIS    DRIZZLE   38  35  89 E8        29.99F
$$

  *****  WEATHER ACROSS SOUTH DAKOTA  *****

CITY           SKY/WX    TMP DP  RH WIND       PRES   REMARKS
SIOUX FALLS    CLOUDY    39  37  92 E7        29.95F
BROOKINGS      CLOUDY    36  35  96 SE5       29.95  FOG
WATERTOWN      CLOUDY    35  35 100 SE5       29.95F FOG
HURON          CLOUDY    39  38  96 SE8       29.95S
SISSETON         N/A     35  35 100 CALM      29.98F
ABERDEEN       CLOUDY    35  33  92 E5        29.97F FOG
MITCHELL       CLOUDY    39  39 100 SE6       29.95S FOG
PIERRE         CLOUDY    40  36  86 SE13      29.90S
MOBRIDGE       MOCLDY    40  34  79 SE9       29.90S
RAPID CITY     CLOUDY    46  30  53 N10       29.82R
$$

  *****  SOME WEATHER IN NEARBY STATES *****

CITY           SKY/WX    TMP DP  RH WIND       PRES   REMARKS
GLASGOW MT     CLOUDY    42  29  59 SE7       29.88S
GREAT FALLS MT FAIR      39  24  55 W16       29.93R
CHEYENNE WY    CLOUDY    43  30  60 W5        29.85S
SCOTTSBLUFF NE FAIR      45  32  60 E8        29.81S
OMAHA NE       CLOUDY    41  37  86 N6        29.90F
DES MOINES IA  DRIZZLE   42  40  92 NE9       29.86F FOG
DAVENPORT IA   CLOUDY    46  45  96 E13       29.84F FOG
CHICAGO IL     CLOUDY    47  45  93 NE8       29.91F FOG
EAU CLAIRE WI  CLOUDY    35  34  96 E7        30.00F
LA CROSSE WI   CLOUDY    38  36  92 E3        29.97F
$$

  *****  SOME NATIONAL WEATHER *****

CITY           SKY/WX    TMP DP  RH WIND       PRES   REMARKS
LA GUARDIA NY  CLOUDY    42  34  73 NE17      30.42R
RALEIGH NC     MOCLDY    59  52  77 SW7       30.20F
ATLANTA GA     LGT RAIN  60  59  96 S10       30.11S
NEW ORLEANS LA FAIR      66  64  93 S7        29.98F
OKLAHOMA CITY  FAIR      47  42  83 E9        29.90S
ALBUQUERQUE NM FAIR      50  30  46 NE6       29.97R
SALT LAKE CITY MOCLDY    39  38  96 W5        30.02S
LOS ANGELES CA FAIR      57  54  89 W8        30.04S
BOISE ID       FAIR      42  30  62 SE8       29.99F
SEATTLE WA     CLOUDY    45  39  79 SE8       30.02F
$$

*** WEATHER ACROSS MANITOBA...SASKATCHEWAN AND ONTARIO ***
                ***ONTARIO***

CITY           SKY/WX    TMP DP  RH WIND       PRES   REMARKS
GERALDTON      PTCLDY    23   5  46 E6        30.18F WCI  16
THUNDER BAY    CLOUDY    30  28  93 NE7       30.15F WCI  23
SIOUX LOOKOUT  MOCLDY    28  18  64 S8        30.04F WCI  20
TORONTO        LGT RAIN  34  30  86 E9G20     30.31F
BIG TROUT LK   CLOUDY    28  10  47 S14       30.02F WCI  17
PICKLE LAKE    NOT AVBL
DRYDEN         CLOUDY    30  25  80 S16G22    30.03S WCI  19
KENORA         PTCLDY    32  27  80 S12G18    29.99F WCI  23
$$
                *** MANITOBA***

CITY           SKY/WX    TMP DP  RH WIND       PRES   REMARKS
BRANDON        MOCLDY    32  30  93 W8        29.91S WCI  25
DAUPHIN        CLEAR     36  32  87 W9        29.89R
ISLAND LAKE    CLOUDY    37  28  70 S12G18    29.81F
PILOT MOUND      N/A     34  32  93 SW8         N/A
THE PAS        CLOUDY    21  16  79 NW14G23   29.87R WCI   8
THOMPSON       FRZ RAIN  32  30  93 W12       29.69  WCI  23
WINNIPEG       CLOUDY    34  32  93 S13       29.94F WCI  25
LYNN LAKE      CLOUDY    16  14  93 N7        29.82R WCI   6
CHURCHILL      LGT SNOW  14  12  92 E15       29.99F BLWGSNOWWCI  -1
GILLAM         LGT SNOW  27  25  93 SE6       29.78F VSB 3/4 WCI  20
$$
                ***SASKATCHEWAN***

CITY           SKY/WX    TMP DP  RH WIND       PRES   REMARKS
ESTEVAN        PTCLDY    34  32  93 S8        29.89S
KINDERSLEY     PTCLDY    34  30  86 SE12G18   29.76F
LLOYDMINSTER   MOCLDY    28  28 100 SE8       29.81F FOG     WCI  20
PRINCE ALBERT  CLOUDY    32  28  86 E2        29.88R
REGINA         MOCLDY    36  34  93 SE7       29.86S
YORKTON        MOCLDY    30  30 100 SW3       29.87S



USA.gov is the U.S. government's official web portal to all federal, state and local government web resources and services.